This is the latest recevied weather packets stored in our database for station/object M0JUI-1. If no packets are shown the sender has not sent any weather packets the latest 10 day(s).
| Time | Temp. | Humidity | Pressure | Rain* | Wind** | Luminosity | Snow |
|---|---|---|---|---|---|---|---|
| 1788376545 | 17.22° C | 1% | 1013.5 hPa | 0 mm | - | 0 W/m² | - |
| 1788376245 | 17.22° C | 1% | 1013.6 hPa | 0 mm | - | 0 W/m² | - |
| 1788375945 | 17.22° C | 1% | 1013.6 hPa | 0 mm | - | 0 W/m² | - |
| 1788375645 | 17.78° C | 1% | 1013.8 hPa | 0 mm | - | 0 W/m² | - |
| 1788375345 | 17.78° C | 1% | 1013.8 hPa | 0 mm | - | 2 W/m² | - |
| 1788375045 | 17.78° C | 1% | 1013.6 hPa | 0 mm | - | 3 W/m² | - |
| 1788374745 | 17.78° C | 1% | 1013.7 hPa | 0 mm | - | 5 W/m² | - |
| 1788374446 | 17.78° C | 1% | 1013.5 hPa | 0 mm | - | 7 W/m² | - |
| 1788374145 | 17.78° C | 1% | 1013.7 hPa | 0 mm | - | 11 W/m² | - |
| 1788373845 | 17.78° C | 1% | 1013.7 hPa | 0 mm | - | 7 W/m² | - |
| 1788373545 | 17.78° C | 1% | 1013.6 hPa | 0 mm | - | 6 W/m² | - |
| 1788373245 | 17.78° C | 1% | 1013.5 hPa | 0 mm | - | 8 W/m² | - |
| 1788372945 | 17.78° C | 4% | 1013.6 hPa | 0 mm | - | 16 W/m² | - |
| 1788372645 | 17.78° C | 8% | 1013.5 hPa | 0 mm | - | 14 W/m² | - |
| 1788372345 | 17.78° C | 11% | 1013.5 hPa | 0 mm | - | 18 W/m² | - |
| 1788372046 | 17.78° C | 13% | 1013.5 hPa | 0 mm | - | 22 W/m² | - |
| 1788371745 | 17.78° C | 14% | 1013.5 hPa | 0 mm | - | 36 W/m² | - |
| 1788371445 | 17.78° C | 15% | 1013.4 hPa | 0 mm | - | 49 W/m² | - |
| 1788371146 | 17.78° C | 16% | 1013.3 hPa | 0 mm | - | 52 W/m² | - |
| 1788370851 | 17.78° C | 16% | 1013.5 hPa | 0 mm | - | 64 W/m² | - |
| 1788370545 | 17.78° C | 17% | 1013.4 hPa | 0 mm | - | 71 W/m² | - |
| 1788370245 | 17.78° C | 17% | 1013.4 hPa | 0 mm | - | 70 W/m² | - |
| 1788369945 | 17.78° C | 17% | 1013.2 hPa | 0 mm | - | 78 W/m² | - |
| 1788369645 | 17.78° C | 17% | 1013.2 hPa | 0.25 mm | - | 65 W/m² | - |
| 1788369333 | 17.78° C | 17% | 1013.4 hPa | 0.25 mm | - | 56 W/m² | - |
* Rain latest hour (hover to see other rain measurements)
** Current wind speed in m/s (hover to see current wind gust speed)